DW4657 Weather Reports


Display with metric or nautical units.
time (UTC)temp
F
wind
direction
speed
MPH
gust
MPH
rain 1hr
in
rain 24hr
in
rain mn
in
humidity
%
barometer
mb
20260510215518 69 160 4.0 11.0 0.00 0.26 0.00 71 1011.0
20260510215018 69 152 3.0 11.0 0.00 0.26 0.00 71 1011.0
20260510214535 69 210 3.0 11.0 0.00 0.26 0.00 71 1011.0
20260510214019 69 168 2.0 8.0 0.00 0.26 0.00 72 1011.0
20260510213519 69 244 4.0 10.0 0.00 0.26 0.00 71 1011.1
20260510213052 69 228 3.0 10.0 0.00 0.26 0.00 71 1011.2
20260510212521 69 216 3.0 9.0 0.00 0.26 0.00 72 1011.2
20260510212022 68 162 5.0 9.0 0.00 0.26 0.00 71 1011.1
20260510211537 68 283 3.0 8.0 0.00 0.26 0.00 72 1011.3
20260510211019 69 198 4.0 7.0 0.00 0.26 0.00 71 1011.1
20260510210518 69 60 3.0 6.0 0.00 0.26 0.00 71 1011.0
20260510210047 69 168 2.0 7.0 0.00 0.26 0.00 71 1011.1
20260510205522 69 167 3.0 7.0 0.00 0.32 0.00 71 1011.1
20260510205019 69 219 3.0 11.0 0.00 0.32 0.00 70 1011.2
20260510204549 69 88 6.0 11.0 0.00 0.32 0.00 69 1011.2
20260510204019 70 194 4.0 11.0 0.00 0.32 0.00 68 1011.1
20260510203519 70 183 4.0 11.0 0.00 0.32 0.00 68 1011.1
20260510203036 71 82 5.0 10.0 0.00 0.32 0.00 67 1011.1
20260510202519 71 76 4.0 12.0 0.00 0.32 0.00 67 1011.0
20260510202018 71 154 5.0 12.0 0.00 0.32 0.00 67 1011.1
20260510201541 71 169 4.0 13.0 0.00 0.32 0.00 67 1011.2
20260510201022 71 226 6.0 13.0 0.00 0.32 0.00 67 1011.1
20260510200518 71 139 4.0 11.0 0.00 0.32 0.00 67 1011.1
20260510200038 70 225 6.0 18.0 0.00 0.32 0.00 68 1011.3
20260510195519 71 203 6.0 18.0 0.00 0.32 0.00 67 1011.2
20260510195022 71 236 4.0 11.0 0.00 0.32 0.00 67 1011.3
20260510194537 71 175 5.0 13.0 0.00 0.32 0.00 67 1011.4
20260510194019 71 213 5.0 13.0 0.00 0.32 0.00 66 1011.4
20260510193522 72 263 3.0 12.0 0.00 0.32 0.00 67 1011.5
20260510193037 72 231 3.0 13.0 0.00 0.32 0.00 66 1011.5
20260510192519 71 98 5.0 13.0 0.00 0.32 0.00 66 1011.6
20260510192019 72 258 5.0 12.0 0.00 0.32 0.00 66 1011.4
20260510191539 71 140 5.0 14.0 0.00 0.32 0.00 69 1011.5
20260510191019 71 170 6.0 14.0 0.00 0.32 0.00 69 1011.5
20260510190518 71 178 5.0 12.0 0.00 0.32 0.00 70 1011.6
20260510190041 71 101 5.0 12.0 0.00 0.32 0.00 69 1011.5
20260510185522 71 156 3.0 13.0 0.00 0.32 0.00 71 1011.5
20260510185018 70 227 4.0 14.0 0.00 0.32 0.00 71 1011.5
20260510184542 70 200 7.0 15.0 0.00 0.32 0.00 70 1011.6
20260510184018 71 183 6.0 15.0 0.00 0.32 0.00 70 1011.7
20260510183519 71 236 5.0 13.0 0.00 0.32 0.00 69 1011.7
20260510183041 70 262 3.0 14.0 0.00 0.32 0.00 70 1011.7
20260510182522 70 164 4.0 14.0 0.00 0.32 0.00 70 1011.8
20260510182018 70 167 5.0 12.0 0.00 0.32 0.00 69 1011.7
20260510181611 70 236 5.0 13.0 0.00 0.32 0.00 69 1011.9
20260510181019 70 176 5.0 13.0 0.00 0.32 0.00 69 1011.9
20260510180525 70 119 6.0 17.0 0.00 0.32 0.00 68 1012.1
20260510180042 70 197 5.0 17.0 0.00 0.32 0.00 69 1012.2
20260510175518 70 123 6.0 17.0 0.00 0.33 0.00 69 1012.1
20260510175019 70 117 5.0 15.0 0.00 0.33 0.00 69 1012.2
20260510174551 69 214 5.0 15.0 0.00 0.33 0.00 70 1012.1
20260510174019 68 274 3.0 13.0 0.00 0.33 0.00 71 1012.2
20260510173518 69 240 7.0 13.0 0.00 0.33 0.00 69 1012.3
20260510173034 70 309 6.0 15.0 0.00 0.33 0.00 68 1012.2
20260510172519 70 163 6.0 15.0 0.00 0.33 0.00 67 1012.4
20260510172019 70 214 5.0 11.0 0.00 0.33 0.00 68 1012.3
20260510171537 70 265 4.0 13.0 0.00 0.33 0.00 70 1012.2
20260510171018 70 239 5.0 13.0 0.00 0.33 0.00 70 1012.3
20260510170518 69 171 3.0 8.0 0.00 0.33 0.00 71 1012.3
20260510170037 68 290 2.0 10.0 0.00 0.33 0.00 73 1012.2
20260510165518 68 243 4.0 10.0 0.00 0.33 0.00 73 1012.5
20260510165018 68 240 4.0 11.0 0.00 0.33 0.00 73 1012.4
20260510164541 67 293 4.0 11.0 0.00 0.33 0.00 73 1012.4
20260510164018 67 231 4.0 10.0 0.00 0.33 0.00 74 1012.5
20260510163518 67 247 3.0 11.0 0.00 0.33 0.00 74 1012.5
20260510163037 66 220 5.0 11.0 0.00 0.33 0.00 75 1012.6
20260510162518 66 279 3.0 10.0 0.00 0.33 0.00 75 1012.7
20260510162019 66 175 3.0 10.0 0.00 0.33 0.00 77 1012.7
20260510161534 65 172 3.0 9.0 0.00 0.33 0.00 78 1012.6
20260510161019 64 179 4.0 9.0 0.00 0.33 0.00 78 1012.8
20260510160519 64 263 3.0 7.0 0.00 0.33 0.00 78 1012.8
20260510160039 64 187 2.0 6.0 0.00 0.33 0.00 78 1012.7
20260510155518 64 139 3.0 6.0 0.00 0.33 0.00 80 1012.7
20260510155018 63 220 1.0 10.0 0.00 0.33 0.00 81 1012.7
20260510154537 63 127 4.0 10.0 0.00 0.33 0.00 80 1012.8
20260510154021 63 176 4.0 8.0 0.00 0.33 0.00 80 1012.9
20260510153522 62 86 3.0 8.0 0.00 0.33 0.00 81 1012.9
20260510153037 62 240 3.0 8.0 0.00 0.33 0.00 81 1013.0
20260510152518 62 151 4.0 8.0 0.00 0.33 0.00 80 1013.0
20260510152020 62 195 4.0 7.0 0.00 0.33 0.00 81 1013.0
20260510151542 62 267 3.0 9.0 0.00 0.33 0.00 81 1013.0
20260510151020 62 186 3.0 10.0 0.00 0.33 0.00 82 1013.0
20260510150523 62 255 3.0 10.0 0.00 0.33 0.00 81 1013.0
20260510150037 62 179 4.0 8.0 0.00 0.33 0.00 81 1013.0
20260510145519 62 226 2.0 7.0 0.00 0.33 0.00 83 1013.0
20260510145018 61 167 2.0 7.0 0.00 0.33 0.00 83 1013.0
20260510144542 61 200 2.0 7.0 0.00 0.33 0.00 83 1013.1
20260510144019 61 131 3.0 7.0 0.00 0.33 0.00 84 1012.9
20260510143518 61 162 3.0 8.0 0.00 0.33 0.00 84 1013.0
20260510143038 60 266 3.0 8.0 0.00 0.33 0.00 84 1012.9
20260510142518 60 225 2.0 6.0 0.00 0.33 0.00 85 1012.9
20260510142019 60 204 2.0 6.0 0.00 0.33 0.00 86 1013.0
20260510141538 60 274 3.0 8.0 0.00 0.33 0.00 85 1013.0
20260510141020 59 165 3.0 9.0 0.00 0.33 0.00 86 1013.0
20260510140518 59 182 3.0 9.0 0.00 0.33 0.00 86 1013.1
20260510140038 59 228 3.0 9.0 0.00 0.33 0.00 87 1013.1
20260510135518 58 84 3.0 9.0 0.00 0.33 0.00 89 1012.9
20260510135018 57 198 3.0 7.0 0.00 0.33 0.00 89 1013.0
20260510134542 57 197 3.0 7.0 0.00 0.33 0.00 90 1013.0
20260510134018 57 203 3.0 7.0 0.00 0.33 0.00 91 1012.9
20260510133522 57 221 2.0 7.0 0.00 0.33 0.00 91 1012.9
20260510133035 56 224 1.0 5.0 0.00 0.33 0.00 92 1013.0
20260510132519 56 216 2.0 5.0 0.00 0.33 0.00 93 1012.9
20260510132018 56 181 1.0 5.0 0.00 0.33 0.00 94 1012.9
20260510131532 56 233 2.0 5.0 0.00 0.33 0.00 93 1012.7
20260510131024 56 236 1.0 3.0 0.00 0.33 0.00 94 1012.7
20260510130519 55 241 0.0 3.0 0.00 0.33 0.00 94 1012.7
20260510130040 55 240 0.0 3.0 0.00 0.33 0.00 94 1012.9
20260510125522 55 0 0.0 2.0 0.00 0.33 0.00 94 1012.7
20260510125018 55 255 0.0 4.0 0.00 0.33 0.00 94 1012.5
20260510124537 55 240 1.0 4.0 0.00 0.33 0.00 94 1012.3
20260510124018 55 245 0.0 3.0 0.00 0.33 0.00 95 1012.4
20260510123521 55 0 1.0 7.0 0.00 0.33 0.00 95 1012.2
20260510123038 55 226 2.0 7.0 0.00 0.33 0.00 95 1012.2
20260510122518 54 148 2.0 10.0 0.00 0.33 0.00 95 1012.3
20260510122018 54 230 3.0 10.0 0.00 0.33 0.00 95 1012.3
20260510121535 54 166 4.0 9.0 0.00 0.33 0.00 95 1012.1
20260510121018 54 149 2.0 10.0 0.00 0.33 0.00 95 1012.1
20260510120518 54 181 3.0 10.0 0.00 0.33 0.00 95 1012.3
20260510120037 54 214 2.0 4.0 0.00 0.33 0.00 95 1012.3
20260510115518 54 214 1.0 9.0 0.00 0.36 0.00 95 1012.6
20260510115018 54 252 3.0 9.0 0.00 0.36 0.00 95 1012.5
20260510114537 54 198 1.0 6.0 0.00 0.36 0.00 95 1012.5
20260510114017 54 44 1.0 6.0 0.00 0.36 0.00 95 1012.5
20260510113517 53 161 3.0 5.0 0.00 0.36 0.00 95 1012.4
20260510113040 54 218 2.0 5.0 0.00 0.36 0.00 95 1012.5
20260510112518 53 122 1.0 4.0 0.00 0.36 0.00 95 1012.6
20260510112021 53 0 0.0 3.0 0.00 0.36 0.00 95 1012.6
20260510111537 53 123 0.0 3.0 0.00 0.36 0.00 95 1012.5
20260510111018 53 147 0.0 3.0 0.00 0.36 0.00 95 1012.7
20260510110521 53 161 0.0 2.0 0.00 0.36 0.00 95 1012.6
20260510110038 53 233 1.0 2.0 0.00 0.36 0.00 95 1012.7
20260510105518 53 0 0.0 2.0 0.00 0.36 0.00 95 1012.7
20260510105017 53 0 0.0 2.0 0.00 0.36 0.00 95 1012.8
20260510104538 53 161 0.0 1.0 0.00 0.36 0.00 95 1012.5
20260510104022 53 0 0.0 1.0 0.00 0.36 0.00 96 1012.5
20260510103519 53 0 0.0 1.0 0.00 0.36 0.00 96 1012.5
20260510103038 52 0 0.0 1.0 0.00 0.36 0.00 95 1012.6
20260510102518 52 0 0.0 2.0 0.00 0.36 0.00 95 1012.6
20260510102018 52 0 0.0 2.0 0.00 0.36 0.00 95 1012.7
20260510101536 52 146 0.0 2.0 0.00 0.36 0.00 95 1012.7
20260510101017 52 0 0.0 2.0 0.00 0.36 0.00 95 1012.6
20260510100518 52 223 0.0 1.0 0.00 0.36 0.00 95 1012.7
20260510100052 52 0 0.0 1.0 0.00 0.36 0.00 95 1012.5
20260510095520 52 0 0.0 1.0 0.00 0.36 0.00 95 1012.5
20260510095019 52 0 0.0 1.0 0.00 0.36 0.00 95 1012.3
20260510094538 52 207 0.0 1.0 0.00 0.36 0.00 95 1012.2
20260510094018 52 0 0.0 1.0 0.00 0.36 0.00 95 1012.2
20260510093518 52 0 0.0 1.0 0.00 0.36 0.00 95 1012.0
20260510093045 52 0 0.0 2.0 0.00 0.36 0.00 95 1012.0
20260510092517 52 0 0.0 3.0 0.00 0.36 0.00 95 1011.8
20260510092018 52 217 0.0 3.0 0.00 0.36 0.00 95 1011.8
20260510091538 52 191 1.0 3.0 0.00 0.36 0.00 95 1011.9
20260510091018 52 223 1.0 4.0 0.00 0.36 0.00 95 1011.9
20260510090519 52 205 1.0 4.0 0.00 0.36 0.00 95 1011.8
20260510090037 52 139 1.0 5.0 0.00 0.36 0.00 95 1011.9
20260510085517 52 143 1.0 5.0 0.00 0.36 0.00 95 1011.9
20260510085018 52 207 1.0 4.0 0.00 0.36 0.00 95 1011.8
20260510084535 52 166 1.0 5.0 0.00 0.36 0.00 95 1011.9
20260510084021 52 98 1.0 5.0 0.00 0.36 0.00 95 1011.9
20260510083518 52 233 1.0 3.0 0.00 0.36 0.00 95 1011.9
20260510083045 52 167 1.0 4.0 0.00 0.36 0.00 95 1012.0
20260510082518 52 0 1.0 4.0 0.00 0.36 0.00 95 1011.9
20260510082017 52 244 0.0 3.0 0.00 0.36 0.00 95 1011.9
20260510081544 52 198 1.0 3.0 0.00 0.36 0.00 95 1011.9
20260510081019 52 200 0.0 2.0 0.00 0.36 0.00 95 1011.9
20260510080519 52 259 1.0 4.0 0.00 0.36 0.00 95 1011.9
20260510080039 52 0 1.0 4.0 0.00 0.36 0.00 95 1011.8
20260510075519 52 0 0.0 4.0 0.00 0.36 0.00 95 1011.8
20260510075019 52 180 2.0 4.0 0.00 0.36 0.00 95 1011.7
20260510074539 52 158 1.0 3.0 0.00 0.36 0.00 95 1011.5
20260510074018 52 224 1.0 4.0 0.00 0.36 0.00 94 1011.6
20260510073518 52 200 1.0 5.0 0.00 0.36 0.00 94 1011.5
20260510073035 52 251 2.0 5.0 0.00 0.36 0.00 94 1011.4
20260510072521 52 219 2.0 5.0 0.00 0.36 0.00 94 1011.3
20260510072020 52 219 1.0 4.0 0.00 0.36 0.00 94 1011.3
20260510071551 52 0 0.0 4.0 0.00 0.36 0.00 94 1011.3
20260510071019 52 174 1.0 6.0 0.00 0.36 0.00 94 1011.4
20260510070519 52 231 2.0 6.0 0.00 0.36 0.00 94 1011.3
20260510070040 52 233 1.0 6.0 0.00 0.36 0.00 94 1011.2
20260510065519 52 243 2.0 6.0 0.00 0.36 0.00 94 1011.1
20260510065022 52 0 0.0 5.0 0.00 0.36 0.00 94 1011.3
20260510064540 52 220 2.0 5.0 0.00 0.36 0.00 94 1011.2
20260510064018 52 256 1.0 5.0 0.00 0.36 0.00 94 1011.2
20260510063521 52 217 1.0 10.0 0.00 0.36 0.00 94 1011.1
20260510063037 52 226 4.0 10.0 0.00 0.36 0.00 94 1011.3
20260510062519 52 265 2.0 9.0 0.00 0.36 0.00 94 1011.3
20260510062018 52 222 2.0 9.0 0.00 0.36 0.00 94 1011.3
20260510061546 52 208 1.0 5.0 0.00 0.36 0.00 94 1011.2
20260510061018 52 198 1.0 4.0 0.00 0.36 0.00 94 1011.2
20260510060517 52 204 0.0 4.0 0.00 0.36 0.00 94 1011.3
20260510060036 52 283 0.0 2.0 0.00 0.36 0.00 94 1011.1
20260510055518 52 191 0.0 1.0 0.00 0.36 0.00 94 1011.3
20260510055018 52 0 0.0 1.0 0.00 0.36 0.00 94 1011.2
20260510054532 52 0 0.0 0.0 0.00 0.36 0.00 94 1011.3
20260510054019 52 0 0.0 1.0 0.00 0.36 0.00 94 1011.3
20260510053524 52 0 0.0 1.0 0.00 0.36 0.00 94 1011.1
20260510053033 51 238 0.0 0.0 0.00 0.36 0.00 94 1011.2
20260510052522 51 0 0.0 0.0 0.00 0.36 0.00 93 1011.4
20260510052017 51 0 0.0 0.0 0.00 0.36 0.00 93 1011.3
20260510051540 51 0 0.0 1.0 0.00 0.36 0.00 93 1011.4
20260510051018 51 0 0.0 2.0 0.00 0.36 0.00 93 1011.4
20260510050518 51 0 0.0 2.0 0.00 0.36 0.00 93 1011.5
20260510050038 51 0 0.0 1.0 0.00 0.36 0.00 93 1011.4
20260510045518 51 0 0.0 0.0 0.00 0.36 0.00 93 1011.4
20260510045018 51 0 0.0 1.0 0.00 0.36 0.00 93 1011.3
20260510044537 51 0 0.0 1.0 0.00 0.36 0.00 93 1011.3
20260510044018 51 0 0.0 0.0 0.00 0.36 0.00 93 1011.4
20260510043518 51 0 0.0 0.0 0.00 0.36 0.00 93 1011.3
20260510043035 51 0 0.0 1.0 0.00 0.36 0.00 93 1011.4
20260510042518 51 0 0.0 2.0 0.00 0.36 0.00 93 1011.3
20260510042020 51 131 0.0 3.0 0.00 0.36 0.00 93 1011.4
20260510041532 51 115 0.0 4.0 0.00 0.36 0.00 93 1011.3
20260510041020 51 0 1.0 4.0 0.00 0.36 0.00 93 1011.4
20260510040518 51 105 1.0 2.0 0.00 0.36 0.00 93 1011.4
20260510040039 51 113 0.0 3.0 0.00 0.36 0.00 93 1011.5
20260510035517 51 189 0.0 3.0 0.00 0.36 0.36 93 1011.7
20260510035017 51 0 0.0 3.0 0.00 0.36 0.36 93 1011.5
20260510034540 51 103 0.0 3.0 0.00 0.36 0.36 93 1011.5
20260510034021 51 120 0.0 2.0 0.01 0.36 0.36 93 1011.5
20260510033518 51 0 0.0 1.0 0.01 0.36 0.36 93 1011.6
20260510033046 51 0 0.0 1.0 0.01 0.36 0.36 93 1011.7
20260510032518 51 0 0.0 1.0 0.01 0.36 0.36 93 1011.7
20260510032020 51 0 0.0 1.0 0.01 0.36 0.36 93 1011.7
20260510031545 51 0 0.0 1.0 0.01 0.36 0.36 93 1011.9
20260510031019 51 0 0.0 1.0 0.01 0.36 0.36 93 1011.9
20260510030520 51 101 0.0 1.0 0.01 0.36 0.36 93 1011.8
20260510030036 51 0 0.0 0.0 0.01 0.36 0.36 93 1011.9
20260510025520 51 0 0.0 0.0 0.01 0.36 0.36 93 1012.1
20260510025020 51 0 0.0 1.0 0.01 0.36 0.36 92 1012.1
20260510024543 51 0 0.0 2.0 0.01 0.36 0.36 92 1012.2
20260510024019 51 101 0.0 2.0 0.00 0.35 0.35 92 1012.5
20260510023520 51 125 0.0 2.0 0.00 0.35 0.35 93 1012.6
20260510023039 51 0 0.0 2.0 0.00 0.35 0.35 92 1012.6
20260510022524 51 0 0.0 2.0 0.00 0.35 0.35 92 1012.7
20260510022019 52 134 0.0 2.0 0.00 0.35 0.35 93 1012.8
20260510021537 52 141 0.0 2.0 0.00 0.35 0.35 92 1012.9
20260510021019 52 0 0.0 0.0 0.00 0.35 0.35 93 1013.1
20260510020519 52 0 0.0 0.0 0.00 0.35 0.35 92 1013.0
20260510020037 52 0 0.0 0.0 0.00 0.35 0.35 92 1013.0
20260510015519 52 0 0.0 0.0 0.00 0.35 0.35 92 1013.0
20260510015020 52 0 0.0 1.0 0.00 0.35 0.35 92 1013.0
20260510014535 52 0 0.0 1.0 0.00 0.35 0.35 92 1013.0
20260510014020 52 0 0.0 1.0 0.00 0.35 0.35 92 1013.0
20260510013520 52 197 0.0 1.0 0.00 0.35 0.35 92 1013.1
20260510013040 52 0 0.0 2.0 0.00 0.35 0.35 92 1013.0
20260510012520 52 122 1.0 3.0 0.00 0.35 0.35 92 1013.1
20260510012020 52 116 0.0 4.0 0.00 0.35 0.35 93 1013.1
20260510011550 52 158 1.0 4.0 0.00 0.35 0.35 92 1013.1
20260510011019 52 156 0.0 3.0 0.00 0.35 0.35 92 1013.2
20260510010519 52 127 1.0 3.0 0.00 0.35 0.35 92 1013.3
20260510010038 52 101 1.0 6.0 0.00 0.35 0.35 92 1013.2
20260510005520 52 150 2.0 6.0 0.00 0.35 0.35 92 1013.3
20260510005020 53 0 1.0 5.0 0.00 0.35 0.35 93 1013.2
20260510004542 53 136 2.0 5.0 0.00 0.35 0.35 93 1013.1
20260510004019 53 184 1.0 5.0 0.00 0.35 0.35 93 1013.1
20260510003519 53 171 1.0 5.0 0.01 0.35 0.35 93 1013.2
20260510003059 53 0 0.0 5.0 0.01 0.35 0.35 93 1013.1
20260510002524 53 211 1.0 5.0 0.01 0.35 0.35 93 1013.2
20260510002020 53 248 0.0 7.0 0.01 0.35 0.35 93 1013.0
20260510001540 53 224 1.0 7.0 0.01 0.35 0.35 93 1013.1
20260510001019 53 166 2.0 4.0 0.01 0.35 0.35 93 1013.1
20260510000520 53 146 1.0 4.0 0.01 0.35 0.35 93 1013.0
20260510000040 54 229 1.0 4.0 0.01 0.35 0.35 93 1013.1
20260509235521 54 203 0.0 3.0 0.01 0.35 0.35 93 1013.2
20260509235018 54 188 1.0 3.0 0.02 0.35 0.35 93 1013.1
20260509234556 54 219 0.0 2.0 0.02 0.35 0.35 93 1013.1
20260509234018 54 226 1.0 2.0 0.02 0.35 0.35 93 1013.1
20260509233517 54 0 0.0 2.0 0.02 0.34 0.34 93 1013.1
20260509233041 54 206 0.0 4.0 0.04 0.34 0.34 93 1013.1
20260509232519 54 127 1.0 4.0 0.08 0.34 0.34 93 1013.0
20260509232018 54 219 1.0 5.0 0.11 0.34 0.34 93 1013.0
20260509231548 54 0 1.0 5.0 0.13 0.34 0.34 93 1013.0
20260509231024 54 99 1.0 3.0 0.15 0.34 0.34 93 1013.0
20260509230517 54 170 1.0 4.0 0.16 0.34 0.34 93 1013.0
20260509230038 54 115 0.0 4.0 0.17 0.34 0.34 93 1013.0
20260509225521 54 219 1.0 3.0 0.18 0.34 0.34 93 1013.0
20260509225021 54 148 0.0 6.0 0.19 0.33 0.33 93 1013.0
20260509224536 54 139 1.0 6.0 0.20 0.33 0.33 92 1012.8
20260509224018 54 198 2.0 6.0 0.20 0.32 0.32 92 1012.8
20260509223521 54 83 2.0 14.0 0.21 0.32 0.32 92 1012.9
20260509223036 54 153 4.0 14.0 0.19 0.30 0.30 92 1012.9
20260509222518 54 221 4.0 10.0 0.15 0.26 0.26 92 1013.0
20260509222018 54 206 2.0 10.0 0.13 0.23 0.23 92 1012.7
20260509221535 54 231 3.0 7.0 0.10 0.20 0.20 91 1012.7
20260509221018 54 0 1.0 5.0 0.09 0.19 0.19 91 1012.5
20260509220517 54 153 2.0 5.0 0.08 0.18 0.18 91 1012.5
20260509220038 54 155 1.0 5.0 0.07 0.17 0.17 91 1012.5